Pardubice, Czech Republic

10:45 PM CEST on June 24, 2017 (GMT +0200)
Pardubice

Weather History for LKPD - February, 2013

Change the Weather History Date:

Saturday, February 2, 2013

  Actual Average Record
Temperature  
Mean Temperature 36 °F -  
Max Temperature 39 °F - - ()
Min Temperature 33 °F - - ()
Degree Days  
Heating Degree Days 29    
Moisture  
Dew Point 34 °F    
Average Humidity 85    
Maximum Humidity 100    
Minimum Humidity 75    
Precipitation  
Precipitation 0.00 in - - ()
Sea Level Pressure  
Sea Level Pressure 29.36 in    
Wind  
Wind Speed 6 mph ()    
Max Wind Speed 16 mph    
Max Gust Speed 29 mph    
Visibility 6.2 miles    
Events Rain    
T = Trace of Precipitation, MM = Missing Value Source: Averaged Metar Reports

Daily Weather History Graph

Daily Weather History Graph

Search for Another Location

Airport or City:

Trip Planner

Search our weather history database for the weather conditions in past years. The results will help you decide how hot, cold, wet, or windy it might be!

Date:

Astronomy

Feb. 02, 2013 Rise Set
Actual Time 7:29 AM CET 4:53 PM CET
Civil Twilight 6:54 AM CET 5:27 PM CET
Nautical Twilight 6:15 AM CET 6:06 PM CET
Astronomical Twilight 5:37 AM CET 6:44 PM CET
Moon No Moon Rise 9:44 AM CET (2/2)
Length of Visible Light 10h 33m
Length of Day
9h 23m
Waning Gibbous, 62% of the Moon is Illuminated
Feb 2
Waning Gibbous
Feb 3
Last Quarter
Feb 10
New
Feb 17
First Quarter
Feb 25
Full

Hourly Weather History & Observations

Time (CET) Temp. Windchill Dew Point Humidity Pressure Visibility Wind Dir Wind Speed Gust Speed Precip Events Conditions
12:59 AM 39.2 °F - 37.4 °F 93% 29.24 in 6.2 mi Variable 2.3 mph - N/A   Overcast
1:15 AM 39.2 °F - 35.6 °F 87% 29.24 in 6.2 mi Variable 1.2 mph - N/A   Overcast
2:00 AM 39.2 °F 37.0 °F 35.6 °F 87% 29.21 in 6.2 mi East 3.5 mph - N/A   Overcast
3:00 AM 39.2 °F 37.0 °F 37.4 °F 93% 29.18 in 6.2 mi ESE 3.5 mph - N/A   Overcast
4:00 AM 39.2 °F 37.0 °F 37.4 °F 93% 29.18 in 6.2 mi East 3.5 mph - N/A   Overcast
5:00 AM 39.2 °F - 37.4 °F 93% 29.15 in 6.2 mi ENE 2.3 mph - N/A Rain Light Rain
6:00 AM 39.2 °F - 37.4 °F 93% 29.15 in 6.2 mi Calm Calm - N/A Rain Light Rain
7:00 AM 37.4 °F - 37.4 °F 100% 29.18 in 6.2 mi WSW 2.3 mph - N/A Rain Light Rain
8:00 AM 39.2 °F 35.9 °F 37.4 °F 93% 29.18 in 6.2 mi WNW 4.6 mph - N/A Rain Light Rain
9:00 AM 39.2 °F 32.5 °F 37.4 °F 93% 29.24 in 6.2 mi West 10.4 mph - N/A   Overcast
10:00 AM 39.2 °F 33.0 °F 37.4 °F 93% 29.27 in 6.2 mi West 9.2 mph - N/A   Overcast
11:00 AM 39.2 °F 31.2 °F 35.6 °F 87% 29.30 in 6.2 mi West 13.8 mph - N/A   Overcast
12:00 PM 39.2 °F 30.5 °F 33.8 °F 81% 29.33 in 6.2 mi WNW 16.1 mph - N/A   Overcast
1:00 PM 39.2 °F 30.5 °F 32.0 °F 75% 29.36 in 6.2 mi WNW 16.1 mph 26.5 mph N/A   Overcast
2:00 PM 37.4 °F 28.5 °F 30.2 °F 75% 29.39 in 6.2 mi WNW 15.0 mph 28.8 mph N/A   Overcast
3:00 PM 37.4 °F 29.3 °F 30.2 °F 75% 29.42 in 6.2 mi WNW 12.7 mph - N/A   Overcast
4:00 PM 37.4 °F 29.3 °F 30.2 °F 75% 29.47 in 6.2 mi WNW 12.7 mph - N/A   Overcast
5:00 PM 37.4 °F 29.3 °F 32.0 °F 81% 29.50 in 6.2 mi WNW 12.7 mph - N/A   Overcast
6:00 PM 37.4 °F 29.3 °F 32.0 °F 81% 29.53 in 6.2 mi WNW 12.7 mph - N/A   Overcast
7:00 PM 35.6 °F 27.1 °F 30.2 °F 81% 29.56 in - West 12.7 mph - N/A   Clear
8:00 PM 35.6 °F 29.2 °F 30.2 °F 81% 29.59 in 6.2 mi WNW 8.1 mph - N/A   Overcast
9:00 PM 35.6 °F 28.6 °F 30.2 °F 81% 29.59 in 6.2 mi WNW 9.2 mph - N/A   Overcast
10:00 PM 33.8 °F 24.8 °F 28.4 °F 81% 29.62 in 6.2 mi NW 12.7 mph - N/A   Overcast
11:00 PM 33.8 °F 24.8 °F 26.6 °F 75% 29.65 in 6.2 mi WNW 12.7 mph - N/A   Overcast